sat.trackr.live / text

‹ back to catalog

STARLINK-35302

NORAD 65845 · 2025-221Y

PAYLOAD ACTIVE UNKNOWN

§ Identity

Operator
Country
US
Launch date
2025-09-29
Launch site
AFWTR
Launch vehicle
Mass (kg)
RCS (m²)

Purposes: comms

External: N2YO · Heavens-Above · Gunter

§ Orbital elements

Epoch: 2026-09-20T05:14:44.749536Z

Period
93.85 min
Inclination
53.1558°
Eccentricity
0.0001100
Mean motion
15.34396733 rev/d
Perigee alt
462.0 km
Apogee alt
463.5 km
Semi-major
6,840.8 km
B*
6.1926e-4
RAAN
260.7295°
Arg perigee
98.2205°
Mean anomaly
261.8922°
Rev number
5,457

§ Raw data

STARLINK-353021 65845U 25221Y   26263.21857349  .00020602  00000+0  61926-3 0  99942 65845  53.1558 260.7295 0001100  98.2205 261.8922 15.34396733 54571

JSON: /api/v1/satellites/65845 · /tle

For live sub-satellite position, see the globe view (requires WebGL).

§ Visibility from observer

Set your observer location to see the next 7 days of passes ≥ 10°. The values pass through the URL so the page stays shareable.

No JS? Fill the form by hand. The geolocation button needs JavaScript.